Theta_e
309 309 310 310 311 310 311 310 310 311 311 312 312 311 311 311 310 310 311 312 311 312 313 314 314 313 312 308 310 311 310 310 312 313 314 314 315 316 318 321 324 325 330 353 348
309 308 309 309 309 309 309 308 309 310 311 311 311 311 311 310 309 311 312 312 313 313 315 314 315 312 307 307 308 309 311 311 312 313 313 313 314 314 316 317 322 327 354 351 348
308 308 308 308 308 308 306 309 310 310 310 310 310 310 310 309 311 313 318 319 318 317 317 314 316 311 306 306 307 308 313 313 313 313 313 314 315 314 316 317 318 316 346 352 350
308 308 308 308 307 307 307 308 308 308 310 311 310 309 309 310 308 316 317 318 318 317 319 318 315 313 306 306 306 308 311 313 313 313 315 315 314 314 315 316 316 316 325 342 345
307 308 308 308 308 307 306 307 307 308 308 308 310 309 310 311 312 307 314 315 319 319 321 317 315 310 310 307 306 307 308 311 312 312 313 313 313 314 314 315 316 315 316 318 330
307 308 307 307 308 308 308 308 306 305 308 309 309 308 309 309 307 308 311 315 321 319 320 317 314 312 309 309 308 308 309 309 310 311 312 313 314 313 315 315 315 315 314 314 320
306 305 305 306 307 306 305 306 305 305 307 308 309 309 309 309 307 313 314 313 322 320 320 319 316 312 309 310 309 309 309 309 310 311 311 313 313 315 314 314 315 314 313 313 314
306 306 306 306 305 306 306 305 303 304 308 308 309 311 310 308 309 309 309 312 313 321 319 317 316 314 310 310 311 309 308 309 309 309 311 312 314 315 313 312 313 313 313 313 313
305 304 303 305 303 304 305 304 302 304 308 310 311 310 312 311 314 313 313 313 316 318 317 317 314 313 309 310 311 310 311 308 309 309 311 311 314 313 314 313 312 312 312 312 312
304 303 302 301 302 302 304 304 304 308 309 311 312 314 312 314 314 317 317 314 317 321 318 317 312 309 310 310 314 313 311 311 312 313 310 311 312 312 313 312 313 311 311 311 312
304 303 303 302 301 302 305 305 305 308 312 314 314 314 314 314 315 313 317 315 317 318 315 311 313 314 311 312 313 314 313 312 312 313 313 312 312 311 312 311 311 311 311 311 311
303 302 303 302 302 300 305 307 306 309 313 312 314 314 313 312 313 313 313 319 321 322 316 314 316 316 317 315 315 315 314 314 313 314 314 314 313 313 313 312 312 313 313 312 311
300 300 301 302 300 305 304 304 303 307 309 311 311 313 313 314 315 315 315 317 321 322 319 318 319 319 318 317 316 315 315 314 313 314 314 315 316 316 315 314 314 314 314 314 312
298 299 301 302 302 303 300 302 306 306 311 311 308 310 311 313 314 315 314 317 321 323 322 319 318 320 319 318 316 316 315 315 315 314 314 316 318 317 317 318 318 317 316 315 312
298 299 300 302 302 302 300 301 304 307 311 308 310 314 313 314 315 317 315 316 322 323 323 322 320 320 321 319 318 316 315 315 315 314 313 315 316 315 318 319 318 317 314 313 314
299 299 301 302 301 301 301 302 305 313 313 309 309 311 311 314 317 316 318 317 318 322 323 323 321 319 319 320 319 316 314 314 313 314 315 315 317 317 317 320 320 318 316 314 313
300 300 300 302 302 303 304 305 311 313 310 311 311 310 311 311 314 317 320 322 324 325 325 325 325 322 320 322 318 316 313 313 315 314 316 315 316 316 318 320 319 317 316 316 315
300 300 300 303 305 305 305 312 313 310 311 310 311 312 312 311 319 322 322 322 321 321 324 328 329 324 322 318 317 315 313 312 317 317 316 318 317 316 317 318 321 318 317 323 323
300 301 302 305 308 308 311 315 316 313 311 312 313 313 313 312 317 319 319 320 320 323 326 326 327 321 321 320 317 316 312 312 318 322 319 318 318 323 325 325 326 324 327 325 332
301 301 302 304 308 309 312 315 313 311 312 313 315 315 316 317 318 319 321 321 320 322 322 324 323 321 320 319 319 317 314 316 320 325 324 322 328 329 328 328 331 330 329 330 334
301 299 303 305 308 306 311 311 310 310 311 316 316 317 316 316 317 318 320 323 322 323 322 323 324 325 323 323 320 317 315 317 318 321 321 325 328 327 328 326 332 330 329 328 327
300 301 304 303 303 305 309 309 310 312 311 313 313 315 315 317 320 321 322 322 322 324 325 322 325 325 324 321 321 320 321 316 319 320 320 321 323 328 327 330 328 330 329 328 327
302 299 305 304 302 305 307 309 308 310 311 314 314 316 315 318 319 319 321 322 321 321 326 325 328 325 326 322 320 323 323 317 318 318 324 323 326 326 328 328 328 328 328 327 324
304 306 300 299 301 304 306 309 308 308 310 310 313 315 315 315 317 321 321 322 321 321 321 323 325 321 325 323 321 324 323 321 317 320 325 326 329 328 328 330 328 326 324 325 324
300 302 303 302 303 302 304 308 307 309 309 311 311 314 317 316 315 321 320 319 322 323 321 322 327 321 325 324 326 325 322 322 319 320 321 327 328 328 326 328 327 326 326 325 322
299 303 303 304 302 303 305 307 308 308 307 311 311 311 313 316 314 315 318 315 318 321 320 321 327 322 328 328 327 328 326 325 323 326 327 328 327 326 325 325 326 326 325 323 318
301 301 303 304 301 304 305 305 306 307 308 308 309 311 313 315 312 313 313 314 318 321 323 323 326 324 329 326 327 328 327 328 327 326 328 329 327 324 327 327 326 324 321 317 316
Wind_Speed
18 18 18 18 19 20 20 20 21 21 21 21 21 22 22 24 29 28 18 29 25 16 24 6 4 13 10 3 5 4 3 6 8 7 7 9 4 6 9 8 8 7 6 14 32
21 20 19 19 19 20 21 20 21 21 20 21 21 21 22 26 31 23 38 35 33 23 23 15 6 5 3 6 4 6 8 10 6 10 6 11 4 7 12 12 18 2 7 30 28
22 22 22 21 22 23 25 22 22 21 21 22 21 20 20 22 7 9 7 6 20 29 18 22 10 3 6 4 6 5 15 11 4 13 11 18 17 5 6 7 2 4 2 10 11
24 24 24 25 26 26 26 25 24 23 23 21 20 19 17 9 7 2 9 4 15 22 21 11 7 7 7 10 7 7 12 9 4 7 7 14 1 8 7 10 5 2 3 5 3
26 27 27 28 28 29 29 29 29 28 25 23 20 16 10 6 16 27 19 22 9 25 27 16 8 7 8 7 8 9 3 6 11 13 17 14 19 10 10 10 9 2 5 5 8
26 27 28 29 30 32 32 32 34 34 28 24 19 16 8 16 21 16 14 13 11 29 25 18 9 10 3 8 12 6 18 18 12 13 14 16 20 5 9 8 9 7 7 4 8
26 28 29 30 31 32 34 35 37 37 31 26 21 16 16 27 12 9 12 10 15 32 11 29 29 11 8 4 11 15 16 11 15 12 8 9 16 23 8 7 8 9 9 8 5
27 28 29 31 32 33 35 39 43 43 33 26 18 16 13 24 32 40 35 27 28 29 32 28 28 13 2 5 6 10 8 17 9 8 8 10 26 16 9 8 10 9 9 9 7
28 30 32 32 34 36 37 41 45 45 28 15 9 9 13 14 13 30 36 22 16 25 28 19 13 7 5 5 6 4 10 6 7 8 7 11 22 6 7 8 10 9 8 10 10
30 32 34 36 37 38 37 40 44 16 3 6 10 5 9 10 7 7 8 32 9 15 12 14 7 7 12 6 13 8 4 6 8 4 9 12 15 6 10 11 14 11 9 9 9
32 34 35 39 42 44 35 18 6 2 4 8 10 11 16 13 22 20 7 17 10 9 12 11 12 20 21 16 8 9 8 8 5 9 8 13 14 11 13 7 10 9 9 10 10
35 36 36 38 43 44 22 3 7 8 13 17 27 30 46 37 26 24 23 10 13 17 18 7 20 11 11 12 15 10 12 11 7 6 7 12 14 16 14 9 14 16 11 11 8
40 40 39 37 43 14 13 20 28 23 7 18 22 22 17 23 29 32 11 14 17 16 21 21 7 16 16 13 14 13 14 7 10 4 10 5 11 15 11 17 15 12 10 8 11
43 44 41 38 18 14 21 14 17 28 4 10 6 6 8 13 7 22 30 13 18 24 17 17 21 23 14 17 13 16 9 13 19 7 6 6 10 7 11 12 7 9 8 10 10
47 49 45 31 24 10 23 24 28 3 4 7 4 13 9 11 10 7 19 16 19 12 16 20 20 25 21 24 18 12 12 16 17 12 5 18 1 7 4 4 7 9 9 9 11
49 52 49 27 13 31 34 29 13 2 9 6 6 18 21 9 6 14 5 10 4 14 18 21 12 21 26 15 20 13 10 12 13 9 7 14 6 6 5 6 6 7 13 11 10
52 52 49 23 7 13 11 1 3 5 8 5 14 20 20 12 13 4 8 3 3 10 19 17 19 16 12 21 17 21 10 5 5 5 6 10 4 7 4 4 7 9 8 9 9
51 50 32 17 18 15 5 2 7 7 11 20 18 24 10 13 4 4 3 6 9 17 9 16 12 26 20 18 15 16 16 6 7 5 5 4 4 5 5 5 7 5 12 7 6
51 30 16 15 19 6 3 4 3 1 8 17 19 10 3 3 6 2 3 3 4 9 10 12 12 5 22 18 16 14 10 11 4 3 4 2 1 6 12 13 13 11 13 10 13
34 13 15 28 14 9 3 4 6 13 15 11 10 4 7 8 9 5 10 5 4 12 6 4 6 17 15 10 18 17 6 7 3 6 4 0 3 2 8 9 12 17 16 15 15
16 4 12 33 2 4 3 4 7 12 16 6 5 7 10 10 8 6 4 6 10 12 13 2 2 2 3 4 15 7 15 4 6 6 5 3 3 6 5 6 14 13 18 17 17
7 4 19 26 6 2 4 14 12 13 19 3 8 11 4 10 5 6 8 6 6 4 15 9 1 4 5 6 1 2 3 5 7 4 2 5 5 2 4 11 18 14 15 18 19
7 3 11 13 5 7 9 11 11 19 17 5 9 8 11 4 4 3 2 4 12 2 11 9 6 4 3 4 3 4 4 4 6 4 3 6 4 1 10 13 16 19 17 16 19
3 4 4 3 0 6 14 6 15 13 14 19 12 7 12 7 4 3 4 5 8 5 11 2 3 4 6 2 4 5 2 2 5 4 6 4 5 2 6 14 12 17 18 17 17
2 2 2 6 9 13 15 6 19 14 8 8 7 15 12 4 6 2 1 3 6 10 4 1 4 5 3 2 7 4 10 7 5 7 7 8 11 7 8 12 15 18 18 19 18
2 3 4 8 8 9 10 6 15 20 13 9 9 19 13 4 1 6 9 3 3 7 3 3 4 12 4 11 6 2 1 3 3 7 10 14 6 3 8 10 9 12 16 16 17
5 7 3 5 5 8 5 14 21 19 7 14 16 13 11 6 12 14 12 13 5 2 5 4 2 4 5 4 1 1 1 2 6 13 19 13 6 7 14 13 13 15 14 18 16
Wind_Direction
345 343 338 333 331 327 325 321 318 317 315 315 317 321 318 316 308 298 251 250 248 255 238 215 215 216 220 234 228 167 184 216 215 218 245 290 324 323 301 271 320 287 165 152 158
346 345 341 335 330 324 319 315 314 313 311 312 313 315 317 322 312 272 281 269 252 223 198 211 240 181 188 205 233 183 211 217 198 220 267 273 250 334 320 323 286 204 43 134 158
340 338 336 334 333 330 332 321 317 313 309 308 307 312 318 328 299 246 78 44 248 213 205 202 209 194 202 214 211 212 237 221 230 231 252 268 276 279 251 252 222 346 176 159 170
337 335 332 331 331 330 327 322 321 316 310 308 308 312 314 325 289 256 213 356 6 196 206 217 193 172 189 218 225 234 237 224 244 256 256 251 258 264 239 244 252 275 128 173 257
333 331 329 328 326 326 324 320 318 315 311 307 305 307 320 251 246 249 262 287 300 176 191 197 194 171 193 199 238 245 298 233 232 243 254 266 261 257 241 255 276 282 108 174 214
329 326 324 324 322 321 320 319 318 316 308 304 297 299 264 258 262 275 267 280 222 178 198 193 206 204 216 223 205 229 226 250 251 243 247 247 264 192 242 224 275 297 286 187 175
335 332 331 328 324 323 321 319 315 309 303 297 288 276 251 241 246 258 243 276 214 194 184 205 208 187 191 285 230 229 256 259 244 241 242 246 264 246 240 235 229 269 283 276 205
338 335 331 328 325 321 318 316 311 305 297 289 279 261 253 261 262 265 264 261 250 217 207 204 205 219 211 309 329 204 224 248 264 225 246 165 254 256 235 242 239 235 263 269 254
337 335 334 329 325 322 319 314 307 307 294 272 248 210 269 275 240 261 239 227 230 211 218 217 185 199 239 197 287 250 242 229 266 212 230 193 253 220 220 246 261 248 237 251 272
337 336 336 334 329 326 322 314 313 316 174 201 228 228 264 250 230 243 251 203 216 193 200 209 199 178 219 170 214 229 206 224 212 248 190 238 250 241 229 213 242 247 249 238 240
334 334 334 333 331 328 326 329 359 10 209 206 210 224 290 256 273 289 187 169 211 190 195 194 197 207 211 218 228 224 220 236 220 229 238 245 255 236 250 224 236 234 238 237 233
334 333 331 332 329 326 321 245 233 314 298 238 241 245 243 250 272 260 278 206 190 211 202 220 218 203 206 201 204 212 234 244 287 266 221 249 250 240 233 229 227 229 224 221 223
336 334 331 330 326 333 318 276 300 324 269 284 248 240 242 206 241 252 218 224 204 200 208 215 216 201 202 212 210 220 228 228 239 300 271 270 265 253 248 228 228 227 221 208 203
334 333 330 329 323 326 298 312 319 328 292 280 249 258 186 188 266 239 229 223 219 209 211 227 232 198 202 217 208 229 213 233 252 250 251 166 269 227 211 204 202 219 225 222 191
334 332 327 323 288 274 280 301 322 316 287 267 255 48 93 159 319 19 210 205 223 198 199 208 200 218 211 213 207 232 219 227 242 249 251 273 221 266 144 237 256 252 214 207 186
333 331 327 322 275 270 289 298 312 130 248 279 317 6 5 343 360 336 310 203 213 214 212 219 200 201 226 219 218 218 230 233 247 243 246 250 165 282 190 185 267 274 200 188 187
334 329 324 303 252 331 335 266 86 219 314 268 330 344 340 333 305 54 309 13 250 227 215 214 220 225 203 225 224 213 206 237 218 206 218 230 144 226 234 259 252 188 174 190 199
335 332 331 312 306 291 305 210 231 254 256 313 325 326 309 306 25 14 184 217 217 236 257 214 216 212 218 207 205 214 197 163 187 161 192 203 193 250 238 323 25 249 158 134 112
336 331 326 354 348 172 173 260 232 259 272 322 321 311 326 9 324 148 263 272 272 212 220 191 221 176 217 226 212 219 197 200 153 158 91 244 117 14 28 20 41 57 47 33 107
328 319 308 341 1 110 206 242 327 341 342 323 290 266 285 331 328 187 186 189 248 210 218 284 209 229 241 240 226 209 199 167 289 132 161 298 74 137 20 31 44 58 52 49 66
330 344 345 342 336 66 31 263 273 299 313 266 282 258 258 303 259 254 240 176 196 198 205 266 30 7 47 117 226 221 213 189 127 126 146 131 235 183 141 96 77 64 68 61 62
322 329 342 2 32 358 350 310 312 317 317 337 293 253 289 280 256 232 207 244 180 198 186 205 306 180 205 278 328 186 125 150 166 168 159 152 240 177 149 113 100 76 77 79 69
323 271 330 2 23 346 329 314 335 334 328 354 298 322 2 285 275 250 264 166 144 124 153 164 207 121 49 321 217 205 129 122 117 117 184 139 243 3 120 115 111 106 104 97 87
302 331 325 2 65 322 328 308 343 343 328 338 299 346 337 320 275 270 286 156 174 124 144 23 186 156 180 128 123 132 132 253 153 104 156 169 151 187 92 127 126 116 112 107 112
0 322 0 312 330 323 324 300 337 345 336 344 315 335 331 305 309 282 291 0 161 150 105 293 196 166 114 133 135 147 210 221 179 170 153 181 148 169 158 142 148 140 130 138 135
26 330 301 298 279 317 324 329 328 335 327 322 313 317 321 265 356 307 337 236 183 162 117 220 246 159 105 81 40 167 229 325 184 113 100 128 89 160 111 107 121 133 134 128 124
329 284 266 300 295 311 320 319 318 332 303 313 319 308 318 4 312 292 279 286 294 19 158 218 242 94 124 21 359 193 249 284 134 148 139 142 146 117 125 140 150 142 119 112 108